Ocean Trader — V2FS4 — position and weather

sailwx.info

Track history (hours):
 
Tides and Currents Weather Stations Pressure Air Temp Water Temp Dewpoint Dewpoint Depression Visibility Wind Speed Wind Dir Waves Ship Positions

Ocean Trader

Last reported at 2016-Sep-29 08:33 UTC. Time now 2016-Dec-04 06:08 UTC.
Position N 54°22' E 010°07'.
Warning: this ship's position is months out of date.

Length 107 m; draft 8.3 m.

Type: Cargo ship. MMSI: 305780000.

Date/timePositionNaut miles runAvg speedWind from/ knotsBaromVisibWave heightAir tempDewpointWater temp
2016-Sep-29 08:33N 54°22' E 010°07'0 0.0
2016-Sep-29 07:33N 54°22' E 010°07'38 3.8
2016-Sep-28 21:33N 53°59' E 009°16'9 4.6
2016-Sep-28 19:33N 53°52' E 009°05'26 8.7
2016-Sep-28 16:33N 53°59' E 008°22'1110.6
2016-Sep-28 15:33N 53°59' E 008°04'3010.1
2016-Sep-28 12:33N 53°53' E 007°13'4310.8
2016-Sep-28 08:34N 53°42' E 006°03'5911.8
2016-Sep-28 03:33N 53°14' E 004°35'2512.4
2016-Sep-28 01:32N 52°52' E 004°16'2512.4
2016-Sep-27 23:32N 52°34' E 003°49'9710.8
2016-Sep-27 14:33N 51°20' E 002°07'1111.1
2016-Sep-27 13:34N 51°11' E 001°56'29411.3
2016-Sep-26 11:32N 49°02' W 004°55'  
2016-Sep-24 02:29N 39°44' W 009°50'1110.8
2016-Sep-24 01:28N 39°33' W 009°50'910.3
2016-Sep-24 00:33N 39°23' W 009°50'5210.4
2016-Sep-23 19:33N 38°31' W 009°47'2010.1
2016-Sep-23 17:33N 38°11' W 009°42'1010.1
2016-Sep-23 16:33N 38°02' W 009°39'1010.3
2016-Sep-23 15:33N 37°52' W 009°36'342 8.8
2016-Sep-22 00:33N 36°22' W 002°42'1110.7
2016-Sep-21 23:34N 36°24' W 002°29'1010.3
2016-Sep-21 22:34N 36°26' W 002°17'3110.3
2016-Sep-21 19:33N 36°48' W 001°50'  
Track history (hours):
 
Tides and Currents Weather Stations Pressure Air Temp Water Temp Dewpoint Dewpoint Depression Visibility Wind Speed Wind Dir Waves Ship Positions

Ocean Trader

Last reported at 2016-Sep-29 08:33 UTC. Time now 2016-Dec-04 06:08 UTC.
Position N 54°22' E 010°07'.
Warning: this ship's position is months out of date.

Length 107 m; draft 8.3 m.

Type: Cargo ship. MMSI: 305780000.

Date/timePositionNaut miles runAvg speedWind from/ knotsBaromVisibWave heightAir tempDewpointWater temp
2016-Sep-29 08:33N 54°22' E 010°07'0 0.0
2016-Sep-29 07:33N 54°22' E 010°07'38 3.8
2016-Sep-28 21:33N 53°59' E 009°16'9 4.6
2016-Sep-28 19:33N 53°52' E 009°05'26 8.7
2016-Sep-28 16:33N 53°59' E 008°22'1110.6
2016-Sep-28 15:33N 53°59' E 008°04'3010.1
2016-Sep-28 12:33N 53°53' E 007°13'4310.8
2016-Sep-28 08:34N 53°42' E 006°03'5911.8
2016-Sep-28 03:33N 53°14' E 004°35'2512.4
2016-Sep-28 01:32N 52°52' E 004°16'2512.4
2016-Sep-27 23:32N 52°34' E 003°49'9710.8
2016-Sep-27 14:33N 51°20' E 002°07'1111.1
2016-Sep-27 13:34N 51°11' E 001°56'29411.3
2016-Sep-26 11:32N 49°02' W 004°55'  
2016-Sep-24 02:29N 39°44' W 009°50'1110.8
2016-Sep-24 01:28N 39°33' W 009°50'910.3
2016-Sep-24 00:33N 39°23' W 009°50'5210.4
2016-Sep-23 19:33N 38°31' W 009°47'2010.1
2016-Sep-23 17:33N 38°11' W 009°42'1010.1
2016-Sep-23 16:33N 38°02' W 009°39'1010.3
2016-Sep-23 15:33N 37°52' W 009°36'342 8.8
2016-Sep-22 00:33N 36°22' W 002°42'1110.7
2016-Sep-21 23:34N 36°24' W 002°29'1010.3
2016-Sep-21 22:34N 36°26' W 002°17'3110.3
2016-Sep-21 19:33N 36°48' W 001°50'  

Dump ship's entire track history